Oklahoma City, OK

8:19 PM CST on January 19, 2019 (GMT -0600)
Will Rogers World

Weather History for KOKC - January, 2019

Change the Weather History Date:

Sunday, January 13, 2019

  Actual Average Record
Temperature  
Mean Temperature 31 °F 39 °F  
Max Temperature 33 °F 49 °F 74 °F (1996)
Min Temperature 29 °F 29 °F -4 °F (1916)
Degree Days  
Heating Degree Days 34 26  
Month to date heating degree days 341 338  
Since 1 July heating degree days 1931 1693  
Cooling Degree Days 0 0  
Month to date cooling degree days 0 0  
Year to date cooling degree days 0 0  
Moisture  
Dew Point 27 °F    
Average Humidity 84    
Maximum Humidity 92    
Minimum Humidity 75    
Precipitation  
Precipitation 0.00 in 0.04 in 0.79 in (1992)
Month to date precipitation 1.81 0.51  
Year to date precipitation 1.81 0.51  
Snow  
Snow 0.00 in 0.10 in 5.00 in (1992)
Month to date snowfall 4.5 1.1  
Since 1 July snowfall 5.5 3.6  
Snow Depth 0.00 in    
Sea Level Pressure  
Sea Level Pressure 30.44 in    
Wind  
Wind Speed 11 mph (North)    
Max Wind Speed 20 mph    
Max Gust Speed 25 mph    
Visibility 9 miles    
Events      
T = Trace of Precipitation, MM = Missing Value Source: NWS Daily Summary

Daily Weather History Graph

Daily Weather History Graph

Search for Another Location

Airport or City:

Astronomy

Jan. 13, 2019 Rise Set
Actual Time 7:39 AM CST 5:39 PM CST
Civil Twilight 7:11 AM CST 6:06 PM CST
Nautical Twilight 6:40 AM CST 6:38 PM CST
Astronomical Twilight 6:09 AM CST 7:08 PM CST
Moon 12:04 PM CST (1/13) No Moon Set
Length of Visible Light 10h 55m
Length of Day
9h 59m
Waxing Crescent, 45% of the Moon is Illuminated
Jan 13
Waxing Crescent
Jan 14
First Quarter
Jan 20
Full
Jan 27
Last Quarter
Feb 4
New

Hourly Weather History & Observations

Time (CST) Temp. Windchill Dew Point Humidity Pressure Visibility Wind Dir Wind Speed Gust Speed Precip Events Conditions
12:52 AM 30.9 °F 19.8 °F 27.0 °F 85% 30.34 in 8.0 mi NNW 16.1 mph - N/A   Overcast
1:52 AM 30.9 °F 19.8 °F 26.1 °F 82% 30.35 in 9.0 mi North 16.1 mph - N/A   Overcast
2:52 AM 30.0 °F 18.7 °F 26.1 °F 85% 30.38 in 8.0 mi NNW 16.1 mph - N/A   Overcast
3:52 AM 30.0 °F 18.7 °F 26.1 °F 85% 30.38 in 8.0 mi North 16.1 mph - N/A   Overcast
4:52 AM 30.0 °F 18.3 °F 26.1 °F 85% 30.40 in 7.0 mi NNW 17.3 mph - N/A   Overcast
5:52 AM 30.0 °F 19.5 °F 26.1 °F 85% 30.42 in 8.0 mi North 13.8 mph - N/A   Overcast
6:52 AM 28.9 °F 17.3 °F 26.1 °F 89% 30.43 in 8.0 mi NNW 16.1 mph - N/A   Overcast
7:52 AM 28.9 °F 18.2 °F 26.1 °F 89% 30.43 in 8.0 mi North 13.8 mph - N/A   Overcast
8:52 AM 30.0 °F 20.0 °F 26.1 °F 85% 30.45 in 9.0 mi North 12.7 mph - N/A   Overcast
9:52 AM 30.9 °F 22.2 °F 27.0 °F 85% 30.48 in 10.0 mi North 10.4 mph - N/A   Overcast
10:52 AM 30.9 °F 21.7 °F 27.0 °F 85% 30.50 in 10.0 mi North 11.5 mph - N/A   Overcast
11:52 AM 32.0 °F 23.6 °F 27.0 °F 82% 30.48 in 9.0 mi North 10.4 mph - N/A   Overcast
12:52 PM 32.0 °F 22.5 °F 27.0 °F 82% 30.45 in 9.0 mi North 12.7 mph - N/A   Overcast
1:52 PM 32.0 °F 23.6 °F 28.0 °F 85% 30.45 in 8.0 mi North 10.4 mph - N/A   Overcast
2:35 PM 33.1 °F 24.9 °F 27.0 °F 78% 30.40 in 10.0 mi North 10.4 mph - N/A   Overcast
2:52 PM 33.1 °F 23.9 °F 27.0 °F 78% 30.43 in 10.0 mi North 12.7 mph - N/A   Overcast
3:52 PM 33.1 °F 26.9 °F 27.0 °F 78% 30.45 in 10.0 mi North 6.9 mph - N/A   Overcast
4:52 PM 33.1 °F 24.9 °F 28.0 °F 82% 30.45 in 10.0 mi NNE 10.4 mph - N/A   Overcast
5:14 PM 33.1 °F 25.5 °F 28.0 °F 82% 30.42 in 10.0 mi North 9.2 mph - N/A   Overcast
5:52 PM 33.1 °F 26.1 °F 28.0 °F 82% 30.45 in 10.0 mi North 8.1 mph - N/A   Overcast
6:52 PM 33.1 °F 25.5 °F 28.0 °F 82% 30.46 in 10.0 mi NNE 9.2 mph - N/A   Overcast
7:52 PM 33.1 °F 26.1 °F 27.0 °F 78% 30.48 in 10.0 mi North 8.1 mph - N/A   Overcast
8:52 PM 33.1 °F 26.9 °F 27.0 °F 78% 30.48 in 10.0 mi NNE 6.9 mph - N/A   Overcast
9:52 PM 32.0 °F 26.4 °F 27.0 °F 82% 30.49 in 10.0 mi North 5.8 mph - N/A   Overcast
10:52 PM 33.1 °F 27.7 °F 27.0 °F 78% 30.50 in 10.0 mi NNE 5.8 mph - N/A   Overcast
11:26 PM 32.0 °F 26.4 °F 28.0 °F 85% 30.45 in 10.0 mi NNE 5.8 mph - N/A   Overcast
11:52 PM 32.0 °F 26.4 °F 28.0 °F 85% 30.49 in 10.0 mi North 5.8 mph - N/A   Overcast